| time (UTC) | temp F | wind direction | speed MPH | gust MPH | rain 1hr in | rain 24hr in | rain mn in | humidity % | barometer mb |
| 20260509230018 | 73 | 338 | 10.0 | 21.0 | 0.00 | 0.00 | 0.00 | 14 | 1016.2 |
| 20260509223017 | 73 | 338 | 7.0 | 18.0 | 0.00 | 0.00 | 0.00 | 18 | 1016.7 |
| 20260509220017 | 72 | 338 | 8.0 | 21.0 | 0.00 | 0.00 | 0.00 | 18 | 1016.6 |
| 20260509213057 | 71 | 338 | 8.0 | 18.0 | 0.00 | 0.00 | 0.00 | 17 | 1016.7 |
| 20260509210017 | 71 | 338 | 8.0 | 19.0 | 0.00 | 0.00 | 0.00 | 18 | 1016.9 |
| 20260509203057 | 70 | 338 | 8.0 | 19.0 | 0.00 | 0.00 | 0.00 | 22 | 1017.4 |
| 20260509200017 | 70 | 338 | 6.0 | 16.0 | 0.00 | 0.00 | 0.00 | 21 | 1018.0 |
| 20260509193017 | 69 | 315 | 6.0 | 16.0 | 0.00 | 0.00 | 0.00 | 19 | 1017.4 |
| 20260509190017 | 68 | 315 | 8.0 | 20.0 | 0.00 | 0.00 | 0.00 | 19 | 1017.9 |
| 20260509183017 | 68 | 338 | 9.0 | 21.0 | 0.00 | 0.00 | 0.00 | 19 | 1017.9 |
| 20260509180017 | 67 | 315 | 6.0 | 18.0 | 0.00 | 0.00 | 0.00 | 18 | 1017.6 |
| 20260509173017 | 66 | 338 | 4.0 | 16.0 | 0.00 | 0.00 | 0.00 | 17 | 1017.6 |
| 20260509170016 | 68 | 338 | 2.0 | 16.0 | 0.00 | 0.00 | 0.00 | 14 | 1017.8 |
| 20260509163056 | 65 | 180 | 4.0 | 17.0 | 0.00 | 0.00 | 0.00 | 26 | 1017.6 |
| 20260509160017 | 63 | 158 | 4.0 | 10.0 | 0.00 | 0.00 | 0.00 | 36 | 1018.1 |
| 20260509153016 | 61 | 203 | 1.0 | 7.0 | 0.00 | 0.00 | 0.00 | 42 | 1018.0 |
| 20260509150056 | 58 | 0.0 | 4.0 | 0.00 | 0.00 | 0.00 | 46 | 1017.3 | |
| 20260509143016 | 53 | 0.0 | 4.0 | 0.00 | 0.00 | 0.00 | 52 | 1017.0 | |
| 20260509140016 | 52 | 0.0 | 4.0 | 0.00 | 0.00 | 0.00 | 52 | 1016.8 | |
| 20260509133016 | 52 | 0.0 | 4.0 | 0.00 | 0.00 | 0.00 | 51 | 1016.8 | |
| 20260509130016 | 52 | 0.0 | 4.0 | 0.00 | 0.00 | 0.00 | 49 | 1016.5 | |
| 20260509123056 | 53 | 0.0 | 3.0 | 0.00 | 0.00 | 0.00 | 48 | 1016.4 | |
| 20260509120016 | 54 | 0.0 | 6.0 | 0.00 | 0.00 | 0.00 | 47 | 1016.0 | |
| 20260509113056 | 54 | 113 | 1.0 | 6.0 | 0.00 | 0.00 | 0.00 | 47 | 1015.8 |
| 20260509110016 | 56 | 113 | 1.0 | 7.0 | 0.00 | 0.00 | 0.00 | 45 | 1016.2 |
| 20260509103016 | 57 | 0.0 | 7.0 | 0.00 | 0.00 | 0.00 | 44 | 1015.9 | |
| 20260509100016 | 57 | 0.0 | 7.0 | 0.00 | 0.00 | 0.00 | 44 | 1015.4 | |
| 20260509093016 | 57 | 0.0 | 2.0 | 0.00 | 0.00 | 0.00 | 43 | 1015.0 | |
| 20260509090016 | 58 | 0.0 | 4.0 | 0.00 | 0.00 | 0.00 | 40 | 1015.2 | |
| 20260509083056 | 60 | 0.0 | 3.0 | 0.00 | 0.00 | 0.00 | 36 | 1015.2 | |
| 20260509080015 | 62 | 0 | 1.0 | 10.0 | 0.00 | 0.00 | 0.00 | 34 | 1015.4 |
| 20260509073017 | 61 | 0.0 | 7.0 | 0.00 | 0.00 | 0.00 | 37 | 1015.1 | |
| 20260509070017 | 64 | 0.0 | 1.0 | 0.00 | 0.00 | 0.00 | 30 | 1014.6 | |
| 20260509063057 | 63 | 0.0 | 0.0 | 0.00 | 0.00 | 0.00 | 32 | 1014.8 | |
| 20260509060018 | 63 | 0.0 | 5.0 | 0.00 | 0.00 | 0.00 | 30 | 1014.5 | |
| 20260509053016 | 64 | 0.0 | 1.0 | 0.00 | 0.00 | 0.00 | 30 | 1014.3 | |
| 20260509050137 | 65 | 0.0 | 1.0 | 0.00 | 0.00 | 0.00 | 30 | 1014.3 | |
| 20260509043056 | 66 | 0.0 | 2.0 | 0.00 | 0.00 | 0.00 | 28 | 1013.7 | |
| 20260509040016 | 67 | 0.0 | 1.0 | 0.00 | 0.00 | 0.00 | 26 | 1013.7 | |
| 20260509033016 | 69 | 0.0 | 3.0 | 0.00 | 0.00 | 0.00 | 24 | 1013.4 | |
| 20260509030016 | 70 | 0.0 | 4.0 | 0.00 | 0.00 | 0.00 | 24 | 1012.6 | |
| 20260509023016 | 71 | 23 | 2.0 | 5.0 | 0.00 | 0.00 | 0.00 | 23 | 1012.2 |
| 20260509020021 | 73 | 0 | 4.0 | 10.0 | 0.00 | 0.00 | 0.00 | 22 | 1012.3 |
| 20260509013016 | 74 | 0 | 6.0 | 16.0 | 0.00 | 0.00 | 0.00 | 20 | 1012.5 |
| 20260509010016 | 75 | 0 | 9.0 | 20.0 | 0.00 | 0.00 | 0.00 | 21 | 1012.7 |
| 20260509003015 | 75 | 338 | 7.0 | 18.0 | 0.00 | 0.00 | 0.00 | 20 | 1012.8 |
| 20260509000015 | 75 | 338 | 7.0 | 17.0 | 0.00 | 0.00 | 0.00 | 21 | 1013.1 |
| 20260508233015 | 76 | 338 | 8.0 | 18.0 | 0.00 | 0.00 | 0.00 | 21 | 1013.0 |